FENGYUN 1C DEB

Satellite information

Favourite Embed

Satellite Type and Status

DEBRISIN ORBIT

Key statistics

Satellite FENGYUN 1C DEB at a glance.

Uptime

9715

Days in orbit

Revolutions

≈ 14.1

Per day

Orbit

SSO

Sun Synchronous Orbit

Inclination

99.0

Latest

Satellite identification and parameters

Extended collection of information and parameters for FENGYUN 1C DEB.

Object identification

Identified? True

Debris? True

Object name: FENGYUN 1C DEB

International designator: 1999-025BMA

Object number (NORAD): 31244

Object ID (CCSDS): 31244

Country: PEOPLES REPUBLIC OF CHINA (PRC)

Current information (Y/N): Y

RCS size: SMALL

Orbital parameters

Period: 102.401 minutes

Inclination: 99.037 deg

SMA: 7250.413 km

Apoapsis: 946.462 km

Periapsis: 798.094 km

RAAN: 45.5611 deg

Eccentricy: 0.01023168

Argument of periapsis: 188.335 deg

Mean anomaly: 171.6122 deg

Mean motion: 14.06237413 rev/day

Mean motion (dot): 0.0000078 rev/day2

B* drag term: 0.00047777338 1/REarth

Two-line elements (TLE)

Creation date: Dec. 8, 2025, 3:46 a.m.

Reference frame: TEME

Reference center: EARTH

Epoch: Dec. 7, 2025, 10:21 p.m. UTC

TLE line 0: 0 FENGYUN 1C DEB

TLE line 1: 1 31244U 99025BMA 25341.93167294 .00000780 00000-0 47777-3 0 9995

TLE line 2: 2 31244 99.0370 45.5611 0102317 188.3350 171.6122 14.06237413575725

Live tracking on map

Real-time ground track for satellite FENGYUN 1C DEB.

In-orbit conjunctions

A list of the most updated potential collisions computed for object FENGYUN 1C DEB.

Target Orbit TCA Probability of collision Miss distance Type
COSMOS 2251 DEB LEO 2025-11-09 15:40:59 0.0001947757 514.0 (m) DEBRIS
METEOR 2-17 DEB LEO 2025-08-14 11:50:19 0.0001077185 171.0 (m) DEBRIS
COSMOS 1844 LEO 2024-09-11 18:22:18 0.0007944792 97.0 (m) PAYLOAD
SCOUT G-1 DEB SSO 2024-08-04 18:08:51 0.0001695398 80.0 (m) DEBRIS

Associated space launch

Chinese polar orbiting meteorological satellite

FENGYUN 1C DEB was lifted into orbit during the mission ‘Long March 4B | Feng Yun 1C’, on board a Long March 4B space rocket.

The launch took place on May 10, 1999, 1:33 a.m. from Launch Complex 7.

For more information about the launch, click the button.

Launch to space Long March 4B | Feng Yun 1C
Long March 4B | Feng Yun 1C

Agency: N/A

Status: Launch Successful

Launch date: May 10, 1999, 1:33 a.m. UTC

Rocket: Long March 4B

Launch pad: Launch Complex 7

Location: Taiyuan Satellite Launch Center, People's Republic of China

...

Latest news about this satellite

There are no fresh news available about this satellite. Check back as we update our databases every day.


Newsletter sign-up

Weekly statistics, charts and insights to help you stay on top of the space industry.